Regional Weather Roundup
Issued by NWS Upton, NY

Current Version | Previous Version | Graphics & Text | Print | Product List | Glossary Off
Versions: 1 2 3 4 5 6 7 8 9 10 11 12 13 14 15 16 17 18 19 20 21 22 23 24 25 26 27

000
ASUS41 KOKX 300804
RWROKX

REGIONAL WEATHER ROUNDUP
NATIONAL WEATHER SERVICE NEW YORK NY
400 AM EDT SAT APR 30 2016

NOTE: "FAIR" INDICATES FEW OR NO CLOUDS BELOW 12,000 FEET WITH NO
SIGNIFICANT WEATHER AND/OR OBSTRUCTIONS TO VISIBILITY.

NYZ071-072-176-178-NJZ106-104-300900-
NEW YORK CITY METRO AREA


CITY           SKY/WX    TMP DP  RH WIND       PRES   REMARKS
CENTRAL PARK   CLOUDY    47  36  65 VRB7      30.18R
LAGUARDIA APRT CLOUDY    48  39  71 NE10      30.16R
KENNEDY INTL   CLOUDY    47  40  76 NE7       30.18R
NEWARK/LIBERTY CLOUDY    46  43  89 N10       30.16R
BRNX BOT. GARD   N/A     45  37  76 NE2       30.18R
TETERBORO      CLOUDY    47  40  76 N6        30.16R
$$

NYZ177-179-078>081-300900-
LONG ISLAND NEW YORK

CITY           SKY/WX    TMP DP  RH WIND       PRES   REMARKS
FARMINGDALE    CLOUDY    45  39  79 NE5       30.16S
ISLIP          CLOUDY    45  38  76 NE6       30.15R
SHIRLEY        CLOUDY    44  40  85 CALM      30.17S
RIVERHEAD        N/A     43  41  93 E2        30.16S
WESTHAMPTON    CLOUDY    42  39  89 NE8       30.17F
EAST HAMPTON   LGT RAIN  41  38  91 NE3       30.17F
MONTAUK POINT    N/A     43  39  86 CALM      30.19F
$$

NYZ052-065-067-300900-
HUDSON VALLEY

CITY           SKY/WX    TMP DP  RH WIND       PRES   REMARKS
WHITE PLAINS   CLOUDY    44  40  85 N5        30.15R
NEWBURGH       MOCLDY    43  43 100 CALM      30.16F FOG
MONTGOMERY     CLOUDY    44  42  93 CALM      30.15S
POUGHKEEPSIE   CLOUDY    46  42  86 CALM      30.15F
ALBANY         CLOUDY    46  38  73 S3        30.14F
$$

NJZ001-105-106-008-010-013-015-019>022-104-300900-
NEW JERSEY

CITY           SKY/WX    TMP DP  RH WIND       PRES   REMARKS
NEWARK/LIBERTY CLOUDY    46  43  89 N10       30.16R
TETERBORO      CLOUDY    47  40  76 N6        30.16R
CALDWELL       CLOUDY    46  41  82 NE3       30.17R
MORRISTOWN     CLOUDY    45  43  93 CALM      30.16R
SOMERVILLE     CLOUDY    46  42  86 NW3       30.15R
SUSSEX         CLOUDY    44  40  85 NE3       30.16S
ANDOVER          N/A     43  40  89 CALM      30.15S
TRENTON        CLOUDY    46  39  76 N5        30.15R
MILLVILLE      CLOUDY    47  44  90 NE7       30.13R
ATLANTIC CITY  CLOUDY    47  45  93 NE5       30.13R
WRIGHTSTOWN    CLOUDY    46  43  88 N7        30.12R
TOMS RIVER     CLOUDY    46  39  76 NE7       30.15R
BELMAR         CLOUDY    47  39  74 NE6       30.16R
$$

PAZ047>061-062-071-300900-
EASTERN PENNSYLVANIA

CITY           SKY/WX    TMP DP  RH WIND       PRES   REMARKS
PHILADELPHIA   CLOUDY    48  41  76 NE6       30.16S
ALLENTOWN      CLOUDY    46  38  73 CALM      30.16S
SCRANTON       CLOUDY    41  37  86 SE3       30.14S
$$

CTZ002-004>006-009-010-012-RIZ004-006-007-MAZ004-011-015-300900-
SOUTHERN NEW ENGLAND
 IN CT

CITY           SKY/WX    TMP DP  RH WIND       PRES   REMARKS
BRADLEY INTL   CLOUDY    45  38  76 S7        30.14F
HARTFORD       CLOUDY    47  37  68 CALM      30.17F
DANBURY        CLOUDY    44  40  85 CALM      30.15F
WTRBRY/OXFORD    N/A     41  37  87 SE3       30.16F
BRIDGEPORT     CLOUDY    45  40  82 NE8       30.16S
MERIDEN        CLOUDY    43  40  89 CALM      30.17F
NEW HAVEN      CLOUDY    44  41  89 NE6       30.17F
CHESTER        CLOUDY    43  39  87 CALM      30.15F
GROTON         CLOUDY    44  42  93 W3        30.18S
WILLIMANTIC    CLOUDY    46  34  62 CALM      30.17S

 IN RI

CITY           SKY/WX    TMP DP  RH WIND       PRES   REMARKS
PROVIDENCE     CLOUDY    44  35  70 W6        30.18R
BLOCK ISLAND   CLOUDY    42  37  82 W3        30.18S
WESTERLY       CLOUDY    44  37  76 SW3       30.18S

 IN MA

CITY           SKY/WX    TMP DP  RH WIND       PRES   REMARKS
BOSTON         CLEAR     42  32  67 S7        30.18S
WORCESTER      CLOUDY    40  30  67 SW8       30.13F WCI  34
WESTFIELD      CLOUDY    45  36  70 S6        30.13F
PROVINCETOWN   CLEAR     30  27  88 CALM      30.19S
NANTUCKET      PTCLDY    42  33  70 NE8       30.16F
$$

ANZ330-335-338-340-345-350-353-355-300900-
COASTAL MARINE OBSERVATIONS


STATION/POSITION TIME  SKY/WX   TEMP    WIND        PRES    VSBY  WAVE
                                AIR SEA DIR/SP/G                  HT/PER
                 (UTC)          (F)     (DEG/KT/KT) (MB)    (MI)  (FT/S)
NY HARB ENTRANCE 0650            48 51   50/ 14/ 16 1020.1          5/ 8
20S FIRE ISLAND  0650            47 48   70/ 14/ 16 1020.0          6/ 8
GREAT SOUTH BAY  0700            45 56   30/  8/ 14   N/A
23 SSW MONTAUK P 0750            45 47   20/ 14/ 16 1020.4
15 E BARNEGAT LI 0722               50                N/A           6/ 8
HUDSON CANYON    0650            47 47              1018.7          7/ 8
KINGS POINT      0700            47 53              1020.5
EXECUTION ROCKS  NOT AVBL
CENTRAL LI SOUND 0700            44      60/  8/ 10   N/A           1/ 5
EASTERN LI SOUND 0700            44 47  250/  6/ 10   N/A
ROBBINS REEF     0700            49      40/  7/  9 1020.2
$$


>>>>>>>>>>>>>>>>>>>>>>>>>>>> KEY <<<<<<<<<<<<<<<<<<<<<<<<<<<
>                                                          <
>     SKY/WX - SKY CONDITION/PRESENT WEATHER               <
>     TMP    - TEMPERATURE IN FAHRENHEIT                   <
>     DP     - DEWPOINT IN FAHRENHEIT                      <
>     RH     - RELATIVE HUMIDITY IN PERCENT                <
>     WIND   - DIRECTION AND SPEED IN MPH                  <
>     PRES   - MEAN SEA LEVEL PRESSURE IN INCHES OF HG     <
>     WCI    - WIND CHILL INDEX                            <
>     VSB    - VISIBILITY IN MILES                         <
>     HX     - HEAT INDEX                                  <
>     TC     - TEMPERATURE IN CELSIUS                      <
>     VRB    - VARIABLE WIND DIRECTION                     <
>                                                          <
>>>>>>>>>>>>>>>>>>>>>>>>>>>> KEY <<<<<<<<<<<<<<<<<<<<<<<<<<<






USA.gov is the U.S. government's official web portal to all federal, state and local government web resources and services.